Location: ??
(35.5090°N, 139.6783°E)
Time: 19:08:56
(UTC+00:00)

Cosmos 1464 Rocket - Pass Details

Date: 08 November 2025
Orbit: 950 x 1001 km, 82.9° (Epoch: 08 December)

Event Time Altitude Azimuth Distance (km) Brightness Sun altitude
Rises 09:54:35 0° 184° (S) 3,707 7.1 -27.6°
Reaches altitude 10° 09:57:06 10° 184° (S) 2,759 6.4 -28.1°
Maximum altitude 10:03:27 89° 101° (ESE) 999 3.9 -29.4°
Enters shadow 10:04:30 65° 7° (N) 1,085 4.1 -29.7°
Exits shadow 10:11:38 - 7° (N) 3,442 6.8 -31.1°
Sets 10:12:18 0° 7° (N) 3,694 7.0 -31.2°
